Regional Weather Roundup
Issued by NWS

Home | Current Version | Previous Version | Text Only | Print | Product List | Glossary On
Versions: 1 2 3 4 5 6 7 8 9 10 11 12 13 14 15 16 17 18 19 20 21 22 23 24 25 26 27 28 29 30 31 32 33 34 35 36 37 38 39 40 41 42 43 44 45 46 47 48 49 50
000
ASUS43 KOAX 032110
RWRNE

WEATHER ROUNDUP FOR NEBRASKA
NATIONAL WEATHER SERVICE OMAHA NE
400 PM CDT MON AUG 03 2015

NOTES: SATELLITE DATA IS BEING USED TO AUGMENT CLOUD COVER ABOVE
       12000 FEET.
       "FAIR" INDICATES FEW OR NO CLOUDS BELOW 12,000 FEET WITH NO
       SIGNIFICANT WEATHER AND/OR OBSTRUCTIONS TO VISIBILITY.

  * THESE STATIONS DO NOT REPORT WEATHER SUCH AS RAIN...SNOW OR FOG.

NEZ001>004-019>022-054>056-032200-
NEBRASKA PANHANDLE

CITY           SKY/WX    TMP DP  RH WIND       PRES   REMARKS
SCOTTSBLUFF    CLOUDY    88  61  40 E15       29.98F
ALLIANCE       PTSUNNY   87  61  41 S16       29.99F
CHADRON        PTSUNNY   89  61  38 E9        29.95F
KIMBALL        CLOUDY    89  37  16 SW16      30.04S
SIDNEY         PTSUNNY   90  49  24 S18       30.02F
$$

NEZ057>060-069>072-079>082-032200-
SOUTHWEST NEBRASKA

CITY           SKY/WX    TMP DP  RH WIND       PRES   REMARKS
NORTH PLATTE   PTSUNNY   83  69  62 SE16      29.97F
IMPERIAL       CLOUDY    86  63  45 E10       29.98F
LEXINGTON      PTSUNNY   85  69  58 S9        29.98S
MCCOOK         CLOUDY    90  68  48 E13       29.95F HX  94
OGALLALA       PTSUNNY   88  64  45 SE13      29.98F
$$

NEZ005>010-023>029-035>040-094-032200-
NORTH CENTRAL NEBRASKA

CITY           SKY/WX    TMP DP  RH WIND       PRES   REMARKS
AINSWORTH      MOSUNNY   80  60  50 E8        30.01F
BROKEN BOW     PTSUNNY   87  61  41 E12       29.98F
O`NEILL        SUNNY     83  60  45 NE6       30.00F
ORD            MOSUNNY   83  59  44 E7        29.97F
THEDFORD       MOSUNNY   86  60  41 SE10G20   30.00F
$$

NEZ041-046>049-061>064-073>077-083>087-032200-
SOUTH CENTRAL NEBRASKA

CITY           SKY/WX    TMP DP  RH WIND       PRES   REMARKS
GRAND ISLAND   PTSUNNY   82  67  60 E12       29.98F
AURORA         MOSUNNY   81  69  67 E9        29.98S
HASTINGS       MOSUNNY   82  70  66 NE10      29.97F
HEBRON         MOSUNNY   88  71  56 E6        29.93F HX  93
HOLDREGE       PTSUNNY   84  67  56 E10       29.97F
KEARNEY *      MOSUNNY   84  68  58 E13       29.98S
YORK           MOSUNNY   81  66  61 E9        29.98F
$$

NEZ011>018-030>034-042>045-032200-
NORTHEAST NEBRASKA

CITY           SKY/WX    TMP DP  RH WIND       PRES   REMARKS
NORFOLK        MOSUNNY   82  58  43 VRB6      29.99F
ALBION         SUNNY     80  57  45 E6        30.00S
BLAIR          PTSUNNY   79  59  50 CALM      29.98F
COLUMBUS *     SUNNY     82  61  47 NE6       29.98S
FREMONT        PTSUNNY   81  63  54 NE6       29.98F
TEKAMAH        MOSUNNY   81  64  56 CALM      29.97F
WAYNE          MOSUNNY   80  62  54 CALM      29.99F
$$

NEZ050>053-065>068-078-088>093-032200-
SOUTHEAST NEBRASKA

CITY           SKY/WX    TMP DP  RH WIND       PRES   REMARKS
LINCOLN        MOSUNNY   85  66  53 NE13      29.96F
OMAHA EPPLEY   PTSUNNY   82  61  48 NW5       29.97F
BEATRICE       MOSUNNY   82  69  66 E9        29.95S
FALLS CITY     MOSUNNY   82  73  74 SE7       29.92F
NEBRASKA CITY  MOSUNNY   80  62  53 E7        29.96S
PLATTSMOUTH    MOSUNNY   80  63  57 NE5       29.97F
$$

NEZ044-045-051>053-067-032200-
OMAHA AREA

CITY           SKY/WX    TMP DP  RH WIND       PRES   REMARKS
OMAHA EPPLEY   PTSUNNY   82  61  48 NW5       29.97F
BLAIR          PTSUNNY   79  59  50 CALM      29.98F
FREMONT        PTSUNNY   81  63  54 NE6       29.98F
MILLARD          N/A     82  65  56 E3        29.96F
OFFUTT AFB     MOSUNNY   81  63  53 NE7       29.96F
PLATTSMOUTH    MOSUNNY   80  63  57 NE5       29.97F
WAHOO          FAIR      81  65  56 E3        29.97F
$$


USA.gov is the U.S. government's official web portal to all federal, state and local government web resources and services.